CZ-6A DEB, 54577

Orbit data source: Space-Track

CZ-6A DEB, 54577 is space debris in SSO originally from a launch on Fri, 11 Nov 2022 UTC launched from the Taiyaun Space Center, China (TSC). Debris objects in space refer to the collection of defunct objects orbiting the Earth. Examples of debris include non-operational satellites, rocket bodies, and fragments generated from explosions, collisions, or faulty payload assembly.

Loading next visibility...
Identifier
54577, 2022-151MD
Orbit
SSO
Country
Flag of CNCN / PRC
Related business
Manufacturer
SAST
Mission
Spacecraft
Bus & Motor
Unknown
Mass
Unknown
Launch date (UTC)
2022-11-11 (4 years ago)
Launch vehicle
Unknown
Launch site
Taiyaun Space Center, China (TSC)
Object type
Payload
Rocket body
Debris
Shape & HBR
Unknown shape, 0.1 m
Radar Cross Section
Medium (>0.1 m² and <1 m²)

Expand to show TLE details & history
Last TLE update: 2 days ago

TLE from 2 days ago
0 CZ-6A DEB
1 54577U 22151MD  26171.04452840  .00007979  00000-0  13060-2 0  9997
2 54577  98.4501 207.1411 0058658 249.8396 109.6493 14.69927597190074
Epoch: 2026-06-20T01:04Z
TLE epoch observation values (Epoch: 2026-06-20T01:04:07.253Z)
Latitude
-0.00002°
Longitude
-77.15392°
Altitude
678.392 km
Speed
7.51 km/s
True Right ascension
13h 48m 33s
True Declination
0° 00' 00"
Sunlit
Object was in full shadow at epoch
Visualization orbit readout
Latitude
Unknown
Longitude
Unknown
Altitude
Unknown
Speed
Unknown
Apparent Right ascension
Unknown
Apparent Declination
Unknown
Sunlit
N/A
Visualization observer readout
Local Sidereal Time
21:35:13
Azimuth
Unknown
Elevation
Unknown
Doppler factor
Unknown
Orbital elements
Apogee altitude
699.654 km
Perigee altitude
617.104 km
Semi-major axis
7,036.516 km
Eccentricity
0.00587
Inclination
98.4501°
RAAN
207.1411°
Arg. of periapsis
249.8396°
True anomaly
110.28076°
Mean anomaly
109.6493°
Eccentric anomaly
109.96519°
Mean motion
3.67711 °/min
Orbital period
97.9 mins
BSTAR
0.001306
Loading maneuver chart data...
Computing Atmospheric mass density...
Loading historical data...
Loading historical data...
Loading historical data...
Loading historical data...
Loading historical data...
Loading historical data...
Loading historical data...

Documentation

Showing up to 5 results
|